Regional Weather Roundup
Issued by NWS Charleston, SC

Current Version | Previous Version | Graphics & Text | Print | Product List | Glossary On
Versions: 1 2 3 4 5 6 7 8 9 10 11 12 13 14 15 16 17 18 19 20 21 22 23 24 25 26 27 28 29 30 31 32 33 34 35 36 37 38 39 40 41 42 43 44 45 46 47 48 49 50
320
ASUS42 KCHS 191412
RWRCHS

Regional Weather Roundup
National Weather Service Charleston SC
900 AM EST MON FEB 19 2018

NOTE: "fair" indicates few or no clouds below 12,000 feet with no
significant weather and/or obstructions to visibility.

Not all stations are quality controlled. Use data with caution,
especially dewpoint observations.

SCZ027-030-031-034>040-042>050-191500-
...Southeast South Carolina...

CITY           SKY/WX    TMP DP  RH WIND       PRES   REMARKS
N Charleston   CLOUDY    60  57  89 NE7       30.40R FOG
Waterfront Prk NOT AVBL
Mount Pleasant CLOUDY    57  57 100 CALM      30.40S FOG
Johns Island   CLOUDY    61  59  94 N6        30.40R
Pinopolis        N/A     54  54 100 NE6       30.32R
Moncks Corner  CLOUDY    55  54  94 NE5       30.41R FOG
Summerville    CLOUDY    55  54  94 CALM      30.41S
Beaufort MCAS  FOG       61  61 100 NE3       30.39S VSB 1
Beaufort Arpt  CLOUDY    59  59 100 NE5       30.39S FOG
Hilton Head Is FOG       61  59  94 N6        30.40R VSB 1/4
Walterboro     CLOUDY    55  55 100 NE3       30.41R FOG
Allendale      CLOUDY    57  57 100 CALM      30.39S

...Southern Midlands and Pee Dee...

CITY           SKY/WX    TMP DP  RH WIND       PRES   REMARKS
Georgetown     LGT RAIN  54  54 100 CALM      30.42S
Kingstree      CLOUDY    50  50 100 CALM      30.43R FOG
Orangeburg     CLOUDY    56  52  86 NE5       30.41R
Barnwell         N/A     59  59 100 E5        30.40S FOG
Aiken          CLOUDY    54  54 100 E6        30.43S FOG
Manning        CLOUDY    54  50  87 MISG      30.42S FOG
Columbia       CLOUDY    56  53  90 E8        30.41R
Sumter         FOG       52  50  93 NE8       30.41R VSB 1
Florence       FOG       49  48  97 NE7       30.44S VSB 1/2
Myrtle Beach   PTSUNNY   55  51  86 N6        30.43R
N Myrtle Beach PTSUNNY   58  53  84 NE7       30.41S

$$

GAZ063-065-086>088-099>101-113>116-118-119-134>141-150-191500-
...Southeast Georgia...

CITY           SKY/WX    TMP DP  RH WIND       PRES   REMARKS
Savannah Arpt  FOG       60  60 100 NE6       30.40R VSB 1/4
Hunter AAF     CLOUDY    61  59  93 NE3       30.37R FOG
Fort Stewart   CLOUDY    61  60  94 CALM      30.37R
Statesboro     CLOUDY    62  57  84 CALM      30.39S
Sylvania       CLOUDY    60  60  98 SE3       30.40S FOG
Claxton        CLOUDY    62  61  96 CALM      30.39R FOG

...CSRA, Central and far Southeast Georgia...

CITY           SKY/WX    TMP DP  RH WIND       PRES   REMARKS
Thomson        CLOUDY    56  55  94 S3        30.44S FOG
Augusta-Bush   CLOUDY    58  56  93 CALM      30.39R
Augusta-Daniel CLOUDY    59  57  93 E3        30.40R FOG
Swainsboro     CLOUDY    63  61  94 SE5       30.39S
Vidalia        CLOUDY    64  61  88 SE3       30.38R
Eastman        CLOUDY    65  55  71 SE8       30.40R
Hazlehurst     CLOUDY    65  63  93 SE3       30.36S
Alma           CLOUDY    65  62  90 E3        30.37S FOG
Waycross       FOG       64  61  90 E5        30.37R VSB 3/4
Jesup          CLOUDY    64  61  88 CALM      30.38R
Baxley         CLOUDY    63  63 100 CALM      30.37S FOG
Brunswick      FOG       61  59  94 NE6       30.39R VSB 1/4
Saint Simons   FOG       62  62 100 NE8       30.38R VSB 1/2

$$

SCZ027-028-034-036>038-045-046-048>050-GAZ119-141-191500-
...Lake and Supplemental Coastal Observations...

STATION/POSITION TIME  TEMP    WIND        PRES    WAVE   SWELL
                       AIR SEA DIR/SP/G            HT/PER HT/PER/DIR
                 (UTC) (F)     (DEG/KT/KT) (MB)    (FT/S) (FT/S/D)
Winyah Bay       1245   56      30/  5     1029.0
Lake Murray      1320   54      60/  2/  3 1029.1
ACE Basin NERRS  1245   58      20/  2     1029.0
Fort Pulaski     1342   59 59   30/  5/  6 1029.2R
Sapelo Island    1300   61      30/  8     1028.0

$$

ANZ835-935-AMZ111-154-330-350-352-354-370-450-454-472-191500-
...C-MAN and Buoy Observations...

STATION/POSITION TIME  TEMP    WIND        PRES    WAVE   SWELL
                       AIR SEA DIR/SP/G            HT/PER HT/PER/DIR
                 (UTC) (F)     (DEG/KT/KT) (MB)    (FT/S) (FT/S/D)
Buoy 41004       1350   69     190/  8/ 19 1028.7R
Buoy 41008       1350   59 58   30/  8/ 10 1027.9R   3/ 9   3/120/ 9
Folly Beach CMAN 1300   58      20/  7/  7 1029.4R
Capers Nearshore 1308   52 56   30/ 10/ 14 1028.7R
Fripp Nearshore  1308   56 57   50/  8/ 10 1028.2R


STATION/POSITION TIME  TEMP    WIND        PRES    WAVE   SWELL
                       AIR SEA DIR/SP/G            HT/PER HT/PER/DIR
                 (UTC) (F)     (DEG/KT/KT) (MB)    (FT/S) (FT/S/D)
5E St. Marys GA  1330      58                N/A     3/ 6
Frying Pan Buoy  1350   70 67  150/ 10/ 12 1029.6R   4/ 6   3/ 50/ 6
Buoy 41025       1400   66 72  130/ 17/ 21 1031.9
Cape Lookout NC  1300          120/ 10/ 11 1030.5R
Buoy 41002       1350   70 72   80/ 16/ 19 1030.6R   6/ 9   3/ 40/ 9
Buoy 41010       NOT AVBL
St Augustine FL  1400   59 59  350/ 11/ 11 1027.9R


$$




USA.gov is the U.S. government's official web portal to all federal, state and local government web resources and services.